EA3HRE-13 Weather Reports


time (UTC)temp
C
wind
direction
speed
KPH
gust
KPH
rain 1hr
cm
rain 24hr
cm
rain mn
cm
humidity
%
barometer
mb
20260502163704 20 68 0.0 0.0 0.00 0.00 0.00 100 1019.5
20260502162703 20 108 0.0 0.0 0.00 0.00 0.00 100 1019.7
20260502161633 20 120 0.0 0.0 0.00 0.00 0.00 100 1020.1
20260502160633 20 27 0.0 0.0 0.00 0.00 0.00 100 1020.2
20260502151603 21 95 0.0 0.0 0.00 0.00 0.00 100 1020.1
20260502150603 20 105 0.0 0.0 0.00 0.00 0.00 100 1020.2
20260502130532 23 134 0.0 0.0 0.00 0.00 0.00 100 1022.0
20260502123531 23 114 0.0 0.0 0.00 0.00 0.00 100 1022.0
20260502122531 23 76 0.0 0.0 0.00 0.00 0.00 100 1021.8
20260502121531 23 85 0.0 0.0 0.00 0.00 0.00 100 1022.1
20260502120531 23 134 0.0 0.0 0.00 0.00 0.00 100 1022.0
20260502115531 23 91 0.0 0.0 0.00 0.00 0.00 100 1022.1
20260502114501 23 109 0.0 0.0 0.00 0.00 0.00 100 1022.3
20260502113501 23 76 0.0 0.0 0.00 0.00 0.00 100 1022.4
20260502112501 22 113 0.0 0.0 0.00 0.00 0.00 100 1022.5
20260502111501 22 132 0.0 0.0 0.00 0.00 0.00 100 1022.8
20260502110431 22 143 0.0 0.0 0.00 0.00 0.00 100 1022.7
20260502105430 22 128 0.0 0.0 0.00 0.00 0.00 100 1022.6
20260502104430 22 92 0.0 0.0 0.00 0.00 0.00 100 1022.5
20260502103400 22 79 0.0 0.0 0.00 0.00 0.00 100 1022.5
20260502102400 22 114 0.0 0.0 0.00 0.00 0.00 100 1022.7
20260502101330 22 78 0.0 0.0 0.00 0.00 0.00 100 1022.7
20260502100330 22 152 0.0 0.0 0.00 0.00 0.00 100 1022.6
20260502091300 22 71 0.0 0.0 0.00 0.00 0.00 100 1023.1
20260502090300 21 36 0.0 0.0 0.00 0.00 0.00 100 1023.2
20260502071129 18 61 0.0 0.0 0.00 0.00 0.00 100 1023.7
20260502070129 18 9 0.0 0.0 0.00 0.00 0.00 100 1023.7
20260502065106 17 11 0.0 0.0 0.00 0.00 0.00 100 1023.7
20260502064037 17 14 0.0 0.0 0.00 0.00 0.00 100 1023.7
20260502063006 17 14 0.0 0.0 0.00 0.00 0.00 100 1023.4
20260502062006 17 7 0.0 0.0 0.00 0.00 0.00 100 1023.4
20260502061006 17 7 0.0 0.0 0.00 0.00 0.00 100 1023.4
20260502060006 17 8 0.0 0.0 0.00 0.00 0.00 100 1023.4
20260502055006 16 7 0.0 0.0 0.00 0.00 0.00 100 1023.3
20260502053936 16 7 0.0 0.0 0.00 0.00 0.00 100 1023.3
20260502052935 16 7 0.0 0.0 0.00 0.00 0.00 100 1023.1
20260502051935 16 4 0.0 0.0 0.00 0.00 0.00 100 1023.1
20260502050905 16 5 0.0 0.0 0.00 0.00 0.00 100 1023.0
20260502045905 16 3 0.0 0.0 0.00 0.00 0.00 100 1023.0
20260502044905 16 27 0.0 0.0 0.00 0.00 0.00 100 1022.9
20260502043835 16 14 0.0 0.0 0.00 0.00 0.00 100 1022.9
20260502042835 16 6 0.0 0.0 0.00 0.00 0.00 100 1022.9
20260502041835 16 3 0.0 0.0 0.00 0.00 0.00 100 1022.9
20260502040835 16 10 0.0 0.0 0.00 0.00 0.00 100 1022.8
20260502035835 16 25 0.0 0.0 0.00 0.00 0.00 100 1022.9
20260502034835 17 41 0.0 0.0 0.00 0.00 0.00 100 1023.0
20260502033835 17 11 0.0 0.0 0.00 0.00 0.00 100 1022.9
20260502032835 17 22 0.0 0.0 0.00 0.00 0.00 100 1022.9
20260502031834 17 17 0.0 0.0 0.00 0.00 0.00 100 1022.9
20260502030834 17 33 0.0 0.0 0.00 0.00 0.00 100 1023.0
20260502025619 17 41 0.0 0.0 0.00 0.00 0.00 100 1022.9
20260502024619 17 47 0.0 0.0 0.00 0.00 0.00 100 1022.8
20260502023619 17 31 0.0 0.0 0.00 0.00 0.00 100 1022.9
20260502022619 17 78 0.0 0.0 0.00 0.00 0.00 100 1022.8
20260502021619 17 84 0.0 0.0 0.00 0.00 0.00 100 1022.9
20260502020618 18 80 0.0 0.0 0.00 0.00 0.00 100 1022.9
20260502015548 18 89 0.0 0.0 0.00 0.00 0.00 100 1023.0
20260502014548 18 86 0.0 0.0 0.00 0.00 0.00 100 1023.1
20260502013518 18 80 0.0 0.0 0.00 0.00 0.00 100 1023.0
20260502012518 18 81 0.0 0.0 0.00 0.00 0.00 100 1023.1
20260502011518 17 28 0.0 0.0 0.00 0.00 0.00 100 1023.2
20260502010518 17 28 0.0 0.0 0.00 0.00 0.00 100 1023.4
20260502005518 17 28 0.0 0.0 0.00 0.00 0.00 100 1023.3
20260502004518 17 28 0.0 0.0 0.00 0.00 0.00 100 1023.3
20260502003517 17 37 0.0 0.0 0.00 0.00 0.00 100 1023.3
20260502002517 17 55 0.0 0.0 0.00 0.00 0.00 100 1023.6
20260502001447 17 10 0.0 0.0 0.00 0.00 0.00 100 1023.6
20260502000447 17 9 0.0 0.0 0.00 0.00 0.00 100 1023.8
20260501235447 17 10 0.0 0.0 0.00 0.00 0.00 100 1024.0
20260501234447 17 19 0.0 0.0 0.00 0.00 0.00 100 1024.1
20260501233447 17 29 0.0 0.0 0.00 0.00 0.00 100 1024.2
20260501232447 17 43 0.0 0.0 0.00 0.00 0.00 100 1024.2
20260501231446 17 24 0.0 0.0 0.00 0.00 0.00 100 1024.1
20260501230446 17 72 0.0 0.0 0.00 0.00 0.00 100 1024.1
20260501225446 17 45 0.0 0.0 0.00 0.00 0.00 100 1024.1
20260501224446 18 54 0.0 0.0 0.00 0.00 0.00 100 1024.1
20260501223416 18 54 0.0 0.0 0.00 0.00 0.00 100 1024.2
20260501222416 18 35 0.0 0.0 0.00 0.00 0.00 100 1024.2
20260501221416 17 29 0.0 0.0 0.00 0.00 0.00 100 1024.1
20260501220416 17 30 0.0 0.0 0.00 0.00 0.00 100 1024.1
20260501215416 17 31 0.0 0.0 0.00 0.00 0.00 100 1024.1
20260501214415 17 26 0.0 0.0 0.00 0.00 0.00 100 1024.1
20260501213345 17 14 0.0 0.0 0.00 0.00 0.00 100 1024.0
20260501212345 17 16 0.0 0.0 0.00 0.00 0.00 100 1024.0
20260501211345 17 16 0.0 0.0 0.00 0.00 0.00 100 1024.0
20260501210315 17 1 0.0 0.0 0.00 0.00 0.00 100 1023.9
20260501205245 17 21 0.0 0.0 0.00 0.00 0.00 100 1024.0
20260501204245 17 12 0.0 0.0 0.00 0.00 0.00 100 1023.9
20260501203255 17 9 0.0 0.0 0.00 0.00 0.00 100 1023.9
20260501202245 17 48 0.0 0.0 0.00 0.00 0.00 100 1024.1
20260501201245 17 46 0.0 0.0 0.00 0.00 0.00 100 1023.8
20260501200245 18 7 0.0 0.0 0.00 0.00 0.00 100 1023.8
20260501181021 20 78 0.0 0.0 0.00 0.00 0.00 100 1022.9